Weather reports worldwide

Advertisment
Valley, United Kingdom (3302): temperature & dewpoint: 16.04.2018 17:00:00 - 22.04.2018 17:00:00 (BST)Valley, United Kingdom (3302): temperature -20cm & temperature -100cm: 16.04.2018 17:00:00 - 22.04.2018 17:00:00 (BST)Valley, United Kingdom (3302): wind speed & gusts: 16.04.2018 17:00:00 - 22.04.2018 17:00:00 (BST)Valley, United Kingdom (3302): wind direction: 16.04.2018 17:00:00 - 22.04.2018 17:00:00 (BST)Valley, United Kingdom (3302): reduced air pressure: 16.04.2018 17:00:00 - 22.04.2018 17:00:00 (BST)Valley, United Kingdom (3302): visibility: 16.04.2018 17:00:00 - 22.04.2018 17:00:00 (BST)Valley, United Kingdom (3302): sunshine duration: 16.04.2018 17:00:00 - 22.04.2018 17:00:00 (BST)Valley, United Kingdom (3302): precipitation: 16.04.2018 17:00:00 - 22.04.2018 17:00:00 (BST)
Date & Time tt [°C] td [°C] tt -20cm [°C] tt -100cm [°C] ff [km/h] ff [kn] fx [km/h] fx [kn] dd ppp [hPa] vv [km] sd [min] rr [mm]
22.04.2018 17:00:00 - - - - - - - - - - - - -
22.04.2018 16:00:00 12,2 9,4 - - 28 15 - - S 1008,0 10 60 0,0
22.04.2018 15:00:00 11,7 9,4 - - 24 13 - - SSW 1008,1 10 48 0,0
22.04.2018 14:00:00 10,7 10,1 - - 22 12 - - SW 1008,1 2,0 0 0,0
22.04.2018 13:00:00 10,2 9,8 - - 28 15 - - SSW 1007,8 3,7 0 0,0
22.04.2018 12:00:00 9,9 9,6 - - 26 14 - - SSW 1007,3 9 0 0,0
22.04.2018 11:00:00 9,1 8,8 - - 31 17 - - SSW 1007,6 10 0 0,2
22.04.2018 10:00:00 8,9 8,4 12,2 10,0 34 18 50 27 S 1007,7 4,7 0 1,0
22.04.2018 09:00:00 9,5 8,9 - - 29 16 - - S 1007,6 13 6 0,2
22.04.2018 08:00:00 9,5 8,5 - - 22 12 - - S 1007,4 10 0 0,0
22.04.2018 07:00:00 9,5 8,4 - - 24 13 - - S 1007,2 10 0 0,0
22.04.2018 06:00:00 9,7 7,7 - - 22 12 - - S 1007,1 17 0 0,0
22.04.2018 05:00:00 9,4 7,6 - - 22 12 - - S 1007,7 10 0 0,0
22.04.2018 04:00:00 9,4 8,2 - - 15 8 - - S 1008,4 11 0 0,0
22.04.2018 03:00:00 9,9 8,4 - - 18 10 - - S 1008,8 17 0 0,0
22.04.2018 02:00:00 10,3 8,4 - - 15 8 - - SSW 1009,0 10 0 0,0
22.04.2018 01:00:00 11,1 9,2 - - 13 7 - - S 1009,2 10 - 0,0
22.04.2018 00:00:00 11,6 8,6 - - 8 4 - - SSW 1009,4 11 0 0,0
21.04.2018 23:00:00 11,3 7,8 - - 5 3 - - E 1010,1 10 0 0,0
21.04.2018 22:00:00 11,8 7,2 - - 4 2 - - SSE 1010,8 19 0 0,0
21.04.2018 21:00:00 11,8 7,1 - - 8 4 - - SSE 1011,3 10 0 0,0
21.04.2018 20:00:00 14,4 7,9 - - 8 4 - - W 1012,2 10 0 0,0
21.04.2018 19:00:00 15,0 7,5 - - 9 5 - - W 1012,6 20 18 0,0
21.04.2018 18:00:00 17,3 7,8 - - 8 4 - - NW 1013,4 10 48 0,0
21.04.2018 17:00:00 16,5 7,0 - - 9 5 - - NNW 1014,4 29 36 0,0
21.04.2018 16:00:00 17,3 6,7 - - 9 5 - - NW 1015,2 35 42 0,0
21.04.2018 15:00:00 17,5 7,3 - - 11 6 - - WSW 1016,4 24 60 0,0
21.04.2018 14:00:00 17,2 7,5 - - 13 7 - - SW 1017,4 10 60 0,0
21.04.2018 13:00:00 16,1 6,6 - - 9 5 - - SSW 1018,2 35 60 0,0
21.04.2018 12:00:00 15,7 7,1 - - 5 3 - - SSW 1018,9 10 60 0,0
21.04.2018 11:00:00 14,9 5,5 - - 8 4 - - SSW 1019,7 10 60 0,0
21.04.2018 10:00:00 14,2 8,7 11,2 9,9 5 3 - - SSW 1020,2 24 60 0,0
21.04.2018 09:00:00 12,5 7,1 - - 5 3 - - ENE 1020,8 10 60 0,0
21.04.2018 08:00:00 8,9 6,7 - - 5 3 - - NNE 1021,5 40 60 0,0
21.04.2018 07:00:00 5,6 4,3 - - 5 3 - - NE 1021,8 10 6 0,0
21.04.2018 06:00:00 4,8 3,3 - - 4 2 - - ENE 1022,2 45 0 0,0
21.04.2018 05:00:00 5,4 4,4 - - 5 3 - - NNE 1022,7 10 0 0,0
21.04.2018 04:00:00 6,1 4,2 - - 5 3 - - NE 1023,1 30 0 0,0
21.04.2018 03:00:00 5,7 4,6 - - 4 2 - - E 1023,4 29 0 0,0
21.04.2018 02:00:00 6,4 5,2 - - 2 1 - - ESE 1023,9 21 0 0,0
21.04.2018 01:00:00 6,4 5,6 - - 0 0 - - N 1024,4 10 - 0,0
21.04.2018 00:00:00 7,4 6,8 - - 4 2 - - ENE 1024,7 10 0 0,0
20.04.2018 23:00:00 7,9 7,2 - - 2 1 - - NE 1024,8 35 0 0,0
20.04.2018 22:00:00 8,5 7,6 - - 5 3 - - SSE 1025,1 10 0 0,0
20.04.2018 21:00:00 8,4 7,3 - - 5 3 - - SSW 1025,1 10 18 0,0
20.04.2018 20:00:00 9,4 7,5 - - 8 4 - - SW 1025,0 10 60 0,0
20.04.2018 19:00:00 10,5 7,7 - - 8 4 - - SSW 1024,9 29 60 0,0
20.04.2018 18:00:00 10,9 8,2 - - 9 5 - - S 1025,2 10 60 0,0
20.04.2018 17:00:00 11,6 7,1 - - 11 6 - - SSW 1025,6 2,0 60 0,0
20.04.2018 16:00:00 12,0 7,6 - - 11 6 - - SSW 1025,8 50 60 0,0
20.04.2018 15:00:00 10,5 8,8 - - 13 7 - - SW 1026,0 50 60 0,0
20.04.2018 14:00:00 10,2 9,0 - - 13 7 - - SSW 1026,2 50 60 0,0
20.04.2018 13:00:00 8,8 8,3 - - 13 7 - - SSW 1026,5 0,6 60 0,0
20.04.2018 12:00:00 8,4 8,1 - - 11 6 - - SSW 1026,6 0,7 60 0,0
20.04.2018 11:00:00 7,7 7,7 - - 9 5 - - SSW 1026,4 0,5 42 0,0
20.04.2018 10:00:00 7,3 7,3 11,2 9,7 9 5 - - SW 1026,1 0,4 30 0,0
20.04.2018 09:00:00 7,5 7,5 - - 11 6 - - SSW 1025,7 0,2 0 0,0
20.04.2018 08:00:00 7,5 7,5 - - 13 7 - - SSW 1025,4 0,3 0 0,0
20.04.2018 07:00:00 7,4 7,4 - - 15 8 - - SSW 1025,2 0,3 0 0,0
20.04.2018 06:00:00 7,9 7,9 - - 16 9 - - SSW 1024,7 0,5 0 0,0
20.04.2018 05:00:00 8,4 8,4 - - 21 11 - - S 1024,4 1,3 0 0,0
20.04.2018 04:00:00 8,2 8,2 - - 22 12 - - S 1024,7 1,3 0 0,0
20.04.2018 03:00:00 8,2 8,2 - - 26 14 - - S 1024,5 0,5 0 0,0
20.04.2018 02:00:00 8,6 8,5 - - 26 14 - - SSW 1024,9 1,5 0 0,0
20.04.2018 01:00:00 8,9 8,7 - - 22 12 - - SSW 1025,1 1,4 - 0,0
20.04.2018 00:00:00 9,7 9,0 - - 21 11 - - SSW 1024,8 12 0 0,0
19.04.2018 23:00:00 9,2 8,5 - - 15 8 - - S 1024,8 9 0 0,0
19.04.2018 22:00:00 9,8 8,9 - - 21 11 - - S 1024,9 16 0 0,0
19.04.2018 21:00:00 9,9 9,0 - - 16 9 - - S 1024,9 10 12 0,0
19.04.2018 20:00:00 10,6 8,9 - - 15 8 - - S 1024,5 27 18 0,0
19.04.2018 19:00:00 11,1 9,1 - - 21 11 - - S 1024,4 35 18 0,0
19.04.2018 18:00:00 12,6 9,7 - - 18 10 - - S 1024,5 10 24 0,0
19.04.2018 17:00:00 11,6 10,0 - - 18 10 - - SSW 1024,4 10 0 0,0
19.04.2018 16:00:00 11,2 10,0 - - 21 11 - - SSW 1024,6 10 0 0,0
19.04.2018 15:00:00 11,6 10,4 - - 29 16 - - SSW 1024,5 10 0 0,0
19.04.2018 14:00:00 12,1 11,0 - - 22 12 - - S 1024,4 10 0 0,0
19.04.2018 13:00:00 12,4 11,0 - - 24 13 - - S 1024,2 10 0 0,0
19.04.2018 12:00:00 12,1 10,5 - - 22 12 - - S 1024,1 10 0 0,0
19.04.2018 11:00:00 12,1 10,5 - - 26 14 - - S 1023,6 10 0 0,0
19.04.2018 10:00:00 11,4 9,9 11,2 9,7 26 14 - - SSE 1023,2 10 6 0,0
19.04.2018 09:00:00 10,9 9,6 - - 26 14 - - SSW 1022,9 5 60 0,0
19.04.2018 08:00:00 10,9 9,1 - - 21 11 - - S 1022,1 10 60 0,0
19.04.2018 07:00:00 9,4 8,5 - - 5 3 - - S 1021,6 25 0 -
19.04.2018 06:00:00 9,7 8,4 - - 13 7 - - SSE 1021,1 10 0 -
19.04.2018 05:00:00 9,8 8,5 - - 15 8 - - SSE 1020,9 10 0 -
19.04.2018 04:00:00 9,7 8,5 - - 15 8 - - SW 1021,1 9 0 -
19.04.2018 03:00:00 11,0 8,9 - - 22 12 - - SSE 1020,7 9 0 -
19.04.2018 02:00:00 10,6 8,7 - - 18 10 - - S 1021,2 9 0 0,0
19.04.2018 01:00:00 10,6 8,7 - - 18 10 - - SSW 1021,2 8 - 0,0
19.04.2018 00:00:00 11,3 8,7 - - 21 11 - - S 1020,9 7 0 0,0
18.04.2018 23:00:00 11,6 8,6 - - 21 11 - - S 1020,7 9 0 0,0
18.04.2018 22:00:00 12,7 8,2 - - 24 13 - - S 1020,7 11 0 0,0
18.04.2018 21:00:00 14,5 8,3 - - 28 15 - - SSE 1019,9 10 0 0,0
18.04.2018 20:00:00 16,0 8,3 - - 29 16 - - SSE 1019,6 10 18 0,0
18.04.2018 19:00:00 15,7 10,1 - - 18 10 - - SSE 1019,6 10 60 0,0
18.04.2018 18:00:00 16,8 10,5 - - 21 11 - - S 1019,8 10 60 0,0
18.04.2018 17:00:00 17,8 10,2 - - 31 17 - - SSE 1020,1 10 60 0,0
18.04.2018 16:00:00 19,2 11,1 - - 26 14 - - SSE 1020,8 10 60 0,0
18.04.2018 15:00:00 16,6 11,0 - - 26 14 - - SSE 1021,8 10 60 0,0
18.04.2018 14:00:00 15,2 11,0 - - 28 15 46 25 SSE 1022,7 10 60 0,0
18.04.2018 13:00:00 14,3 11,6 - - 35 19 48 26 S 1022,7 10 30 0,0
18.04.2018 12:00:00 12,6 11,2 - - 37 20 48 26 SSE 1022,6 10 0 0,0
18.04.2018 11:00:00 11,1 10,4 - - 29 16 46 25 S 1022,6 8 0 0,0
18.04.2018 10:00:00 11,0 10,3 10,7 9,4 35 19 50 27 S 1022,0 6 0 0,0
18.04.2018 09:00:00 10,8 10,3 - - 39 21 57 31 S 1021,7 8 0 0,0
18.04.2018 08:00:00 11,0 10,4 - - 44 24 57 31 S 1020,4 8 0 0,0
18.04.2018 07:00:00 10,8 10,4 - - 42 23 61 33 S 1019,5 7 0 0,0
18.04.2018 06:00:00 11,0 10,7 - - 44 24 57 31 S 1018,8 8 0 0,4
18.04.2018 05:00:00 10,7 10,5 - - 37 20 - - S 1018,3 2,8 0 0,2
18.04.2018 04:00:00 10,8 10,5 - - 37 20 - - SSE 1018,0 2,9 0 0,8
18.04.2018 03:00:00 10,6 10,2 - - 31 17 - - S 1018,2 3,9 0 0,2
18.04.2018 02:00:00 10,5 10,1 - - 29 16 - - S 1018,3 7 0 0,0
18.04.2018 01:00:00 10,3 9,9 - - 31 17 - - S 1017,7 4,6 - 0,0
18.04.2018 00:00:00 10,0 9,6 - - 34 18 57 31 S 1018,0 4,8 0 0,0
17.04.2018 23:00:00 10,5 9,4 - - 46 25 61 33 S 1017,1 7 0 0,0
17.04.2018 22:00:00 10,7 9,2 - - 42 23 57 31 S 1016,4 5 0 0,0
17.04.2018 21:00:00 10,6 8,8 - - 44 24 55 30 S 1015,6 10 0 0,0
17.04.2018 20:00:00 10,7 8,9 - - 41 22 65 35 S 1014,5 10 0 0,0
17.04.2018 19:00:00 10,8 8,8 - - 42 23 59 32 S 1013,9 10 0 0,0
17.04.2018 18:00:00 11,5 8,8 - - 42 23 55 30 S 1013,5 10 6 0,0
17.04.2018 17:00:00 11,7 8,8 - - 44 24 57 31 S 1012,6 10 0 0,0
17.04.2018 16:00:00 12,1 9,1 - - 42 23 59 32 S 1012,0 10 0 0,0
17.04.2018 15:00:00 11,6 8,9 - - 46 25 63 34 S 1011,5 10 0 0,0
17.04.2018 14:00:00 11,5 8,3 - - 46 25 61 33 S 1010,7 10 0 0,0
17.04.2018 13:00:00 10,8 9,0 - - 44 24 55 30 S 1010,0 15 0 0,0
17.04.2018 12:00:00 10,3 9,3 - - 41 22 57 31 S 1009,3 10 0 0,0
17.04.2018 11:00:00 10,5 9,2 - - 48 26 68 37 S 1008,7 10 0 0,0
17.04.2018 10:00:00 10,3 9,1 10,5 9,2 48 26 65 35 S 1008,2 10 0 0,4
17.04.2018 09:00:00 10,2 9,1 - - 55 30 74 40 S 1007,6 7 0 0,2
17.04.2018 08:00:00 10,0 9,1 - - 55 30 78 42 S 1006,9 7 0 0,4
17.04.2018 07:00:00 10,0 9,0 - - 61 33 85 46 S 1005,9 6 0 1,2
17.04.2018 06:00:00 10,1 9,2 - - 63 34 85 46 S 1005,0 5 0 0,8
17.04.2018 05:00:00 9,7 9,5 - - 63 34 83 45 SSE 1004,8 2,9 0 0,0
17.04.2018 04:00:00 10,6 8,4 - - 61 33 81 44 SSE 1005,1 9 0 0,0
17.04.2018 03:00:00 11,0 7,8 - - 59 32 80 43 SSE 1005,3 9 0 0,0
17.04.2018 02:00:00 11,3 7,1 - - 63 34 89 48 S 1006,2 10 0 0,0
17.04.2018 01:00:00 11,4 6,6 - - 63 34 83 45 SSE 1006,6 11 - 0,0
17.04.2018 00:00:00 11,2 6,3 - - 65 35 83 45 SSE 1006,3 10 0 0,0
16.04.2018 23:00:00 10,8 6,2 - - 63 34 81 44 SSE 1006,8 10 0 0,0
16.04.2018 22:00:00 10,7 6,5 - - 61 33 74 40 SSE 1007,5 10 0 0,0
16.04.2018 21:00:00 10,2 7,0 - - 52 28 63 34 S 1008,5 10 0 0,0
16.04.2018 20:00:00 10,6 6,3 - - 44 24 57 31 S 1008,7 10 0 0,0
16.04.2018 19:00:00 10,7 5,9 - - 37 20 50 27 S 1008,5 10 0 0,0
16.04.2018 18:00:00 10,9 5,2 - - 41 22 57 31 S 1008,3 10 0 0,0
16.04.2018 17:00:00 11,3 5,9 - - 42 23 55 30 S 1008,5 10 0 0,0

tt = temperature
td = dewpoint
tt -20cm = temperature -20cm
tt -100cm = temperature -100cm
ff = wind speed
fx = gusts
dd = wind direction
ppp = reduced air pressure
vv = visibility
sd = sunshine duration
rr = precipitation

Next stations